Weather Roundup
Issued by NWS Chicago, IL

Home | Current Version | Previous Version | Graphics & Text | Print | Product List | Glossary On
Versions: 1 2 3 4 5 6 7 8 9 10 11 12 13 14 15 16 17 18 19 20 21 22 23 24 25 26 27 28 29 30 31 32 33 34 35 36 37 38 39 40 41 42 43 44 45 46 47 48 49 50
000
NZUS59 KLOT 290006
HRRLOT

CHICAGO AREA WEATHER ROUNDUP
NATIONAL WEATHER SERVICE CHICAGO/ROMEOVILLE IL
600 PM CST SUN DEC 28 2014

NOTE: "FAIR" INDICATES FEW OR NO CLOUDS BELOW 12,000 FEET WITH NO
SIGNIFICANT WEATHER AND/OR OBSTRUCTIONS TO VISIBILITY.

* THESE STATIONS ARE NOT UNDER NWS QUALITY CONTROL. THEY ALSO MAY NOT
  REPORT WEATHER SUCH AS PRECIPITATION OR FOG.

ILZ005-006-012>014-019>023-290100-
NORTHEAST ILLINOIS

CITY           SKY/WX    TMP DP  RH WIND       PRES   REMARKS
OHARE          CLEAR     30  16  56 CALM      30.18R
6HR MIN TEMP:  28; 6HR MAX TEMP:  35;

MIDWAY         CLEAR     31  18  58 SW8       30.19R WCI  23
6HR MIN TEMP:  29; 6HR MAX TEMP:  36;

AURORA         CLEAR     28  18  66 SW5       30.19R WCI  23
6HR MIN TEMP:  28; 6HR MAX TEMP:  35;

LANSING*       CLEAR     28  18  66 SW3       30.20R
JOLIET*        CLEAR     23  18  80 CALM      30.21R
WAUKEGAN       CLEAR     26  15  63 CALM      30.18R
6HR MIN TEMP:  25; 6HR MAX TEMP:  35;

DUPAGE AIRPORT CLEAR     26  17  68 SW3       30.18R
6HR MIN TEMP:  26; 6HR MAX TEMP:  35;

WHEELING       CLEAR     31  16  54 CALM      30.20R
6HR MIN TEMP:  30; 6HR MAX TEMP:  36;

KANKAKEE*      CLEAR     27  20  75 CALM      30.21R
MORRIS*        CLEAR     29  18  64 SW3       30.20R
LEWIS AIRPORT* CLEAR     27  18  70 SW5       30.20R WCI  21
NORTHERLY IS     N/A     32  17  54 S6          N/A  WCI  26
$$

WIZ051-052-058>065-066-070>072-290100-
SOUTHEAST WISCONSIN

CITY           SKY/WX    TMP DP  RH WIND       PRES   REMARKS
MILWAUKEE      CLEAR     29  17  61 NW3       30.19R
6HR MIN TEMP:  29; 6HR MAX TEMP:  34;

KENOSHA*       CLEAR     28  19  69 NW3       30.18R
RACINE*        CLEAR     29  18  63 NW3       30.20R
BURLINGTON     CLEAR     23  17  80 CALM      30.18R
WAUKESHA       CLEAR     23  18  80 NW5       30.18R WCI  17
WEST BEND      CLEAR     23  19  86 CALM      30.18R
$$

INZ001>003-010>013-019-020-290100-
NORTHWEST INDIANA

CITY           SKY/WX    TMP DP  RH WIND       PRES   REMARKS
GARY*          CLEAR     30  16  55 VRB7      30.20R WCI  23
MICHIGAN CITY* NOT AVBL
RENSSELAER*    NOT AVBL
VALPARAISO     CLEAR     27  18  69 SW5       30.19S WCI  22
$$

LMZ740>746-290100-
SOUTHERN LAKE MICHIGAN

STATION/POSITION TIME  SKY/WX   TEMP WIND        PRES    VSBY
                                AIR  DIR/SP/G
                 (UTC)          (F)  (DEG/KT/KT) (MB)    (MI)
HARRISON CRIB    0000            34  270/  9/ 10   N/A
BURNHAM HARBOR   0000            32  210/  3/  7   N/A
CALUMET HARBOR   0000            31  210/  4/  7 1021.2R
BURNS HARBOR     NOT AVBL
MICHIGAN CITY    0000            32  190/  5/  6   N/A
$$

ABBREVIATIONS USED IN REMARKS
   TC - TEMPERATURE IN CELSIUS
  WCI - WIND CHILL INDEX
   HX - HEAT INDEX
  VSB - VISIBILITY
$$



USA.gov is the U.S. government's official web portal to all federal, state and local government web resources and services.